This demonstration page uses our WeatherBlox Daily Observations layout. Learn more.

Left ArrowRight Arrow

Hourly Observations for October 22, 2018

Temp ( °F °C ) Dew Point ( °F °C ) Humidity (%) Winds ( mph kmh ) Pressure ( in mb ) Visibility ( mi km ) Precip ( " mm )
12:57 am 00:57 Clear 48 8.9 39 3.9 71 71 N 5 7 30.01 1016 10 16 0.00 0.00
1:57 am 01:57 Clear 45 7.2 39 3.9 80 80 VRB 6 9 30.01 1016 10 16 0.00 0.00
2:57 am 02:57 Clear 43 6.1 38 3.3 82 82 NNW 5 7 30.01 1016 10 16 0.00 0.00
3:57 am 03:57 Clear 44 6.7 38 3.3 79 79 N 8 13 30.01 1016 10 16 0.00 0.00
4:57 am 04:57 Clear 41 5 37 2.8 86 86 NNE 9 15 30.03 1017 10 16 0.00 0.00
5:57 am 05:57 Clear 42 5.6 37 2.8 82 82 N 8 13 30.06 1018 10 16 0.00 0.00
6:57 am 06:57 Clear 41 5 37 2.8 86 86 N 8 13 30.08 1019 10 16 0.00 0.00
7:57 am 07:57 Sunny 41 5 36 2.2 82 82 N 7 11 30.09 1019 10 16 0.00 0.00
8:57 am 08:57 Sunny 44 6.7 38 3.3 79 79 NNE 10 17 30.13 1020 10 16 0.00 0.00
9:57 am 09:57 Sunny 49 9.4 39 3.9 69 69 NE 12 19 30.14 1021 10 16 0.00 0.00
10:57 am 10:57 Sunny 56 13.3 39 3.9 53 53 ENE 14 22 30.15 1021 10 16 0.00 0.00
11:57 am 11:57 Sunny 60 15.6 38 3.3 44 44 ENE 13 20 30.16 1021 10 16 0.00 0.00
12:57 pm 12:57 Sunny 64 17.8 33 0.6 32 32 NE 15 24 30.16 1021 10 16 0.00 0.00
1:57 pm 13:57 Sunny 66 18.9 29 -1.7 25 25 NE 17 28 30.15 1021 10 16 0.00 0.00
2:57 pm 14:57 Sunny 67 19.4 29 -1.7 24 24 ENE 13 20 30.15 1021 10 16 0.00 0.00
3:57 pm 15:57 Sunny 67 19.4 28 -2.2 23 23 ENE 16 26 30.15 1021 10 16 0.00 0.00
4:57 pm 16:57 Sunny 67 19.4 26 -3.3 21 21 ENE 13 20 30.16 1022 10 16 0.00 0.00
5:57 pm 17:57 Sunny 64 17.8 27 -2.8 25 25 undefined N/A 30.17 1022 10 16 0.00 0.00
6:57 pm 18:57 Clear 56 13.3 29 -1.7 36 36 NE 6 9 30.21 1023 10 16 0.00 0.00
7:57 pm 19:57 Clear 51 10.6 29 -1.7 43 43 NE 7 11 30.23 1024 8 13 0.00 0.00
8:57 pm 20:57 Clear 46 7.8 30 -1.1 54 54 NE 9 15 30.24 1024 10 16 0.00 0.00
9:57 pm 21:57 Clear 46 7.8 29 -1.7 51 51 NE 7 11 30.25 1025 10 16 0.00 0.00
10:57 pm 22:57 Clear 45 7.2 27 -2.8 49 49 NE 7 11 30.27 1025 10 16 0.00 0.00
11:57 pm 23:57 Clear 42 5.6 29 -1.7 60 60 NE 10 17 30.28 1025 10 16 0.00 0.00

Powered by AerisWeather